Content
SEND FEEDBACK

Daily
Averages
Monthly
Summary
United States of America

DEDHAM, MASSACHUSETTS


Home > North America > United States > Massachusetts
Elevation: 64 feet     Latitude: 42 13N     Longitude: 071 07W

WEATHER
 
SELECT A DAY
Number of Records: 132,886;   Date Range: 10/15/98 - 7/7/14
 
SHARE

PRINT THIS DATA

[ ← Previous Day ]
WEATHER ALMANAC - JULY 1, 2013
[ Next Day → ]
[ °C ]   °F
We're sorry. There is no daily almanac available for Dedham, Massachusetts on July 1, 2013.
WEATHER BY HOUR - JULY 1, 2013
[ °C ]   °F
Local TimeTemperatureDewpointHumidityBarometerVisibilityWind DirectionWind SpeedGust SpeedPrecipitationEventsConditions
1:54 AM70.0 °F69.1 °F97 %29.98 inSSW (200°)10.4 mph
2:54 AM70.0 °F69.1 °F97 %29.99 inSW (230°)9.2 mph
3:54 AM71.1 °F69.1 °F93 %29.99 inSW (220°)8.1 mph
4:54 AM71.1 °F69.1 °F93 %29.99 inSouth (190°)8.1 mph
5:54 AM71.1 °F69.1 °F93 %30.01 inSouth (180°)9.2 mph
6:54 AM71.1 °F69.1 °F93 %30.03 inSouth (190°)8.1 mph0.01 in
7:54 AM71.1 °F69.1 °F93 %30.03 inSouth (180°)5.8 mph
8:54 AM71.1 °F69.1 °F93 %30.04 inSouth (170°)4.6 mph
9:54 AM72.0 °F70.0 °F93 %30.05 inSouth (180°)6.9 mph
10:54 AM73.9 °F71.1 °F91 %30.05 inSouth (180°)9.2 mph
11:54 AM75.9 °F71.1 °F85 %30.06 inSouth (190°)11.5 mph16.1 mph
12:54 PM81.0 °F72.0 °F74 %30.05 inSSW (200°)13.8 mph20.7 mph
1:54 PM82.0 °F72.0 °F71 %30.03 inSouth (170°)11.5 mph19.6 mph
2:54 PM82.9 °F71.1 °F67 %30.04 inSouth (190°)13.8 mph26.5 mph
3:54 PM81.0 °F71.1 °F72 %30.03 inSouth (190°)18.4 mph26.5 mph
4:54 PM78.1 °F71.1 °F79 %30.05 inSSW (200°)12.7 mph20.7 mph
5:54 PM75.0 °F72.0 °F90 %30.06 inSSW (200°)10.4 mph0.03 in
6:54 PM73.9 °F71.1 °F91 %30.06 inSouth (190°)9.2 mph0.01 in
7:54 PM73.0 °F71.1 °F93 %30.08 inSSW (200°)8.1 mph
8:54 PM72.0 °F69.1 °F91 %30.11 inSouth (190°)15.0 mph19.6 mph
9:54 PM72.0 °F69.1 °F91 %30.12 inSouth (190°)13.8 mph
10:54 PM72.0 °F69.1 °F91 %30.11 inSouth (190°)11.5 mph
11:54 PM72.0 °F69.1 °F91 %30.12 inSSW (200°)12.7 mph
Hourly data recorded from KMQE, located miles away from Dedham, Massachusetts







STORIES FROM OUR PARTNERS